Wolf Point, MT

3:14 AM MST on December 13, 2017 (GMT -0700)
Clayton

Weather History for KOLF - April, 2014

Change the Weather History Date:

Wednesday, April 16, 2014

  Actual Average Record
Temperature  
Mean Temperature 30 °F -  
Max Temperature 36 °F 60 °F 73 °F (2005)
Min Temperature 23 °F 29 °F 12 °F (2001)
Degree Days  
Heating Degree Days 35    
Cooling Degree Days 0    
Moisture  
Dew Point 19 °F    
Average Humidity 64    
Maximum Humidity 81    
Minimum Humidity 52    
Precipitation  
Precipitation 0.00 in 0.03 in 0.21 in (2004)
Month to date precipitation T 0.38  
Year to date precipitation 0.38 1.36  
Sea Level Pressure  
Sea Level Pressure 30.15 in    
Wind  
Wind Speed 12 mph (ENE)    
Max Wind Speed 15 mph    
Max Gust Speed -    
Visibility 10 miles    
Events      
T = Trace of Precipitation, MM = Missing Value Source: NWS Daily Summary

Daily Weather History Graph

Daily Weather History Graph

Search for Another Location

Airport or City:

Trip Planner

Search our weather history database for the weather conditions in past years. The results will help you decide how hot, cold, wet, or windy it might be!

Date:

Astronomy

Apr. 16, 2014 Rise Set
Actual Time 6:10 AM MDT 7:54 PM MDT
Civil Twilight 5:37 AM MDT 8:27 PM MDT
Nautical Twilight 4:57 AM MDT 9:07 PM MDT
Astronomical Twilight 4:13 AM MDT 9:51 PM MDT
Moon 9:48 PM MDT (4/16) 6:55 AM MDT (4/16)
Length of Visible Light 14h 49m
Length of Day
13h 43m
Full, 98% of the Moon is Illuminated
Apr 16
Full
Apr 22
Last Quarter
Apr 29
New
May 6
First Quarter
May 14
Full

Hourly Weather History & Observations

Time (MDT) Temp. Windchill Dew Point Humidity Pressure Visibility Wind Dir Wind Speed Gust Speed Precip Events Conditions
12:53 AM 32.0 °F 22.5 °F 19.0 °F 59% 29.83 in 10.0 mi NE 12.7 mph - N/A   Clear
1:53 AM 28.9 °F 17.7 °F 19.9 °F 69% 29.87 in 10.0 mi NE 15.0 mph - N/A   Clear
2:53 AM 27.0 °F 16.7 °F 19.0 °F 72% 29.90 in 10.0 mi NE 11.5 mph - N/A   Clear
3:53 AM 26.1 °F 15.0 °F 19.0 °F 75% 29.95 in 10.0 mi NE 12.7 mph - N/A   Clear
4:53 AM 24.1 °F 13.7 °F 19.0 °F 81% 29.99 in 10.0 mi NE 10.4 mph - N/A   Clear
5:32 AM 25.0 °F 15.5 °F 19.9 °F 81% 29.97 in 10.0 mi NE 9.2 mph - N/A   Mostly Cloudy
5:53 AM 28.0 °F 20.0 °F 21.9 °F 78% 30.03 in 10.0 mi NE 8.1 mph - N/A   Overcast
6:53 AM 28.9 °F 19.2 °F 21.0 °F 72% 30.07 in 10.0 mi ENE 11.5 mph - N/A   Overcast
7:53 AM 28.9 °F 19.2 °F 19.9 °F 69% 30.10 in 10.0 mi ENE 11.5 mph - N/A   Overcast
8:53 AM 30.0 °F 20.5 °F 19.9 °F 66% 30.13 in 10.0 mi ENE 11.5 mph - N/A   Overcast
9:53 AM 30.9 °F 22.8 °F 19.9 °F 64% 30.15 in 10.0 mi ENE 9.2 mph - N/A   Overcast
10:53 AM 32.0 °F 23.0 °F 19.9 °F 61% 30.18 in 10.0 mi ENE 11.5 mph - N/A   Overcast
11:53 AM 32.0 °F 23.6 °F 19.9 °F 61% 30.20 in 10.0 mi East 10.4 mph - N/A   Overcast
12:53 PM 33.1 °F 24.9 °F 19.9 °F 59% 30.22 in 10.0 mi ENE 10.4 mph - N/A   Overcast
1:53 PM 34.0 °F 25.0 °F 19.9 °F 56% 30.23 in 10.0 mi ENE 12.7 mph - N/A   Overcast
2:53 PM 34.0 °F 25.5 °F 19.0 °F 54% 30.24 in 10.0 mi East 11.5 mph - N/A   Overcast
3:53 PM 35.1 °F 28.6 °F 19.0 °F 52% 30.25 in 10.0 mi East 8.1 mph - N/A   Overcast
4:53 PM 35.1 °F 27.4 °F 19.0 °F 52% 30.26 in 10.0 mi East 10.4 mph - N/A   Overcast
5:53 PM 34.0 °F 27.2 °F 19.0 °F 54% 30.27 in 10.0 mi East 8.1 mph - N/A   Overcast
6:53 PM 33.1 °F 23.9 °F 18.0 °F 54% 30.27 in 10.0 mi East 12.7 mph - N/A   Overcast
7:53 PM 32.0 °F 22.1 °F 19.0 °F 59% 30.28 in 10.0 mi East 13.8 mph - N/A   Overcast
8:53 PM 30.9 °F 21.2 °F 19.0 °F 61% 30.30 in 10.0 mi East 12.7 mph - N/A   Overcast
9:23 PM 30.0 °F 19.5 °F 19.0 °F 64% 30.23 in 10.0 mi East 13.8 mph - N/A   Overcast
9:53 PM 30.0 °F 21.1 °F 19.0 °F 64% 30.32 in 10.0 mi East 10.4 mph - N/A   Overcast
10:53 PM 30.0 °F 20.0 °F 19.0 °F 64% 30.31 in 10.0 mi East 12.7 mph - N/A   Overcast
11:53 PM 30.0 °F 20.5 °F 19.0 °F 64% 30.30 in 10.0 mi East 11.5 mph - N/A   Overcast